Hourly Data Report for September 06, 2017

All times are specified in Local Standard Time (LST). Add 1 hour to adjust for Daylight Saving Time where and when it is observed.

CHARLOTTETOWN A
PRINCE EDWARD ISLAND

46°17'21.000" N
63°07'09.000" W
48.50 m
8300301
71706
YYG

Download Data

Hourly Data (September 2017)
Hourly Data Report for September 6, 2017
Temp Definition
°C
Dew Point Temp Definition
°C
Rel Hum Definition
%
Wind Dir Definition
10's deg

Wind Spd Definition
km/h
Visibility Definition
km
Stn Press Definition
kPa
Hmdx Definition


Wind Chill Definition


Weather Definition


TIME
00:00 Legend Double Dagger 18.7 16.9 89 20 22 24.1 100.74     LegendNANA
01:00 Legend Double Dagger 18.0 16.7 92 19 27 24.1 100.79     LegendNANA
02:00 Legend Double Dagger 18.0 16.8 92 18 26 24.1 100.80     Mainly Clear
03:00 Legend Double Dagger 17.9 16.8 93 17 26 24.1 100.78     LegendNANA
04:00 Legend Double Dagger 18.2 16.7 91 19 30 24.1 100.79     LegendNANA
05:00 Legend Double Dagger 19.0 16.9 87 19 30 24.1 100.85     Mainly Clear
06:00 Legend Double Dagger 19.2 17.4 89 19 34 24.1 100.89     LegendNANA
07:00 Legend Double Dagger 20.0 17.9 87 19 27 24.1 100.96 26   LegendNANA
08:00 Legend Double Dagger 21.2 18.6 85 20 26 24.1 100.99 28   Mainly Clear
09:00 Legend Double Dagger 21.8 18.7 82 20 24 24.1 101.06 28   LegendNANA
10:00 Legend Double Dagger 22.8 19.1 80 21 26 24.1 101.10 30   LegendNANA
11:00 Legend Double Dagger 24.3 19.9 76 20 28 24.1 101.11 32   Mainly Clear
12:00 Legend Double Dagger 25.2 19.4 70 20 36 24.1 101.12 32   LegendNANA
13:00 Legend Double Dagger 25.2 20.0 73 20 26 24.1 101.14 33   LegendNANA
14:00 Legend Double Dagger 26.1 19.2 65 21 34 24.1 101.11 33   Mostly Cloudy
15:00 Legend Double Dagger 25.7 19.3 67 18 26 24.1 101.05 33   LegendNANA
16:00 Legend Double Dagger 25.9 18.4 63 18 29 24.1 101.04 32   LegendNANA
17:00 Legend Double Dagger 24.5 18.6 69 18 27 24.1 101.03 31   Mainly Clear
18:00 Legend Double Dagger 23.9 18.6 72 19 27 24.1 101.07 30   LegendNANA
19:00 Legend Double Dagger 23.7 18.9 74 20 29 24.1 101.14 30   LegendNANA
20:00 Legend Double Dagger 22.4 19.2 82 18 21 24.1 101.17 29   Mostly Cloudy
21:00 Legend Double Dagger 21.3 19.0 87 18 24 24.1 101.16 28   LegendNANA
22:00 Legend Double Dagger 21.0 19.1 89 18 27 24.1 101.17 28   LegendNANA
23:00 Legend Double Dagger 20.3 18.9 91 18 25 24.1 101.19 27   Mostly Cloudy

Notes on Data Quality.

Legend

  • E = Estimated
  • M = Missing
  • NA = Not Available
  • ‡ = Partner data that is not subject to review by the National Climate Archives
Date modified: